AirNav   Free Bose Alto or Rondo audio sunglasses
 
 1399 users online  

MA87 Cape Air Seaplanes on Boston Harbor Seaplane Base
Boston, Massachusetts, USA

GOING TO BOSTON?


FAA INFORMATION EFFECTIVE 03 DECEMBER 2020

Location

FAA Identifier: MA87
Lat/Long: 42-21-09.0000N 071-01-33.0000W
42-21.150000N 071-01.550000W
42.3525000,-71.0258333
(estimated)
Elevation: 0 ft. / 0 m
From city: 1 mile SE of BOSTON, MA
Time zone: UTC -5 (UTC -4 during Daylight Saving Time)
Zip code: 02127

Seaplane Base Operations

Seaplane Base use: Private use. Permission required prior to landing
Activation date: 09/2016
Control tower: no
ARTCC: BOSTON CENTER
FSS: BRIDGEPORT FLIGHT SERVICE STATION
Attendance: 
Segmented circle: no

Seaplane Base Communications

WX ASOS at BOS (1.1 nm NE): 135.0 (617-567-5762)
WX ASOS at OWD (12 nm SW): 119.95 (781-762-4314)
WX ASOS at BED (14 nm NW): 124.6 (781-274-9733)
WX ASOS at BVY (15 nm N): 119.2 (978-921-5042)

Nearby radio navigation aids

VOR radial/distance  VOR name  Freq  Var
BOSr276/1.6BOSTON VOR/DME112.7016W
LWMr188/23.5LAWRENCE VOR/DME112.5015W
MHTr169/34.5MANCHESTER VOR/DME114.4015W

 
NDB name  Hdg/Dist  Freq  Var  ID
STOGE033/14.739715WOW --- .--
PROVINCETOWN312/39.538916WPVC .--. ...- -.-.

Seaplane Base Services

Runway Information

Runway 14W/32W

Dimensions: 2500 x 60 ft. / 762 x 18 m
Surface: water
RUNWAY 14W  RUNWAY 32W
Latitude: 42-21.150000N
Longitude: 071-01.550000W
Elevation: 0.0 ft.
Traffic pattern: leftleft

Seaplane Base Ownership and Management from official FAA records

Ownership: Privately-owned
Owner: HYANNIS AIR SERVICE, INC
660 BARNSTABLE RD
HYANNIS, MA 02601
Phone 508-862-9719
Manager: ANDREW BONNEY
660 BARNSTABLE RD
HYANNIS, MA 02601
Phone 508-862-9719

Additional Remarks

FOR CD CTC BOSTON ARTCC AT 603-879-6859.
IATA ID: BNH.

Instrument Procedures

There are no published instrument procedures at MA87.

Some nearby airports with instrument procedures:

KBOS - General Edward Lawrence Logan International Airport (1 nm NE)
KOWD - Norwood Memorial Airport (12 nm SW)
KBED - Laurence G Hanscom Field Airport (14 nm NW)
KBVY - Beverly Regional Airport (15 nm N)
KGHG - Marshfield Municipal Airport - George Harlow Field (22 nm SE)
 
Loc | Ops | Rwys | IFR | FBO | Links
Com | Nav | Svcs | Stats | Notes
Aerial photo
No photo
 
Airport distance calculator
Flying to Cape Air Seaplanes on Boston Harbor Seaplane Base? Find the distance to fly.

From to MA87

Sunrise and sunset
Times for 03-Dec-2020
 Local
(UTC-5)
 Zulu
(UTC)
Morning civil twilight06:2611:26
Sunrise06:5811:58
Sunset16:1121:11
Evening civil twilight16:4221:42

Current date and time
Zulu (UTC)  03-Dec-2020 22:06:20
Local (UTC-5)  03-Dec-2020 17:06:20
 
METAR
KBOS 032154Z 22010KT 10SM FEW180 FEW250 08/M04 A3007 RMK AO2 SLP182 T00781039
KMQE 
9nm SW 
032151Z AUTO 22012KT 06/M05 A3005 RMK AO1 SLP192 T00611050
KOWD 
12nm SW 
032153Z 20004KT 10SM CLR 08/M04 A3008 RMK AO2 SLP187 T00781039
KBED 
14nm NW 
032151Z 21004KT 10SM CLR 06/M04 A3006 RMK AO2 SLP194 T00611039
KBVY 
15nm N 
032153Z 21007KT 10SM CLR 07/M04 A3005 RMK AO2 SLP173 T00721044
TAF
KBOS 031735Z 0318/0424 23011KT P6SM FEW250 FM040500 23010KT P6SM BKN150 FM041500 22012KT P6SM BKN080
KBED 
14nm NW 
031735Z 0318/0418 23008KT P6SM FEW250 FM040000 22006KT P6SM SCT250 FM041400 21010KT P6SM BKN100
NOTAMs
Click for the latest NOTAMs
NOTAMs are issued by the DoD/FAA and will open in a separate window not controlled by AirNav.

 

 
 

Would you like to see your business listed on this page?

 If your business provides an interesting product or service to pilots, flight crews, aircraft, or users of the Cape Air Seaplanes on Boston Harbor Seaplane Base, you should consider listing it here.  To start the listing process, click on the button below
 
Add a business
 

Other Pages about Cape Air Seaplanes on Boston Harbor Seaplane Base

Update a link
 
Copyright © AirNav, LLC. All rights reserved. Privacy Policy  Contact